COSMOS 2251 DEB, 34761

Orbit data source: Space-Track

COSMOS 2251 DEB, 34761 is space debris in LEO originally from a launch on Wed, 16 Jun 1993 UTC launched from the Plesetsk Missile And Space Complex (PKMTR). The debris from Iridium 33, an American commercial communications satellite, has been tracked extensively since its accidental collision with the defunct Russian satellite Cosmos 2251 in 2009. This event, occurring at high speed in low Earth orbit (LEO), generated thousands of pieces of space debris, significantly increasing the risk of further collisions. The Iridium 33 debris cloud has impacted space traffic management and orbital debris mitigation strategies, making it a subject of ongoing study in space situational awareness.

Loading next visibility...
Identifier
34761, 1993-036AAF
Orbit
LEO
Last TLE update
2 days ago
Origin
Manufacturer
Unknown
Mission
Spacecraft
Bus & Motor
Unknown
Mass
Unknown
Launch date (UTC)
1993-06-16 (32 years ago)
Launch vehicle
Unknown
Launch site
Plesetsk Missile And Space Complex (PKMTR)
Object type
Payload
Rocket body
Debris
Shape & HBR
Unknown
Radar Cross Section
Small (<0.1 m²)

Expand to show TLE details & history

TLE from 2 days ago
0 COSMOS 2251 DEB
1 34761U 93036AAF 25126.19333160  .00002392  00000-0  80595-3 0  9990
2 34761  74.0304  48.8746 0038638 142.4857 217.9004 14.37162641844809
Epoch: 2025-05-06T04:38Z
Definitive object data (Epoch: 2025-05-06T04:38:23.85Z)
Latitude
-0.00006°
Longitude
114.97916°
Altitude
792.332 km
Speed
7.446 km/s
True Right ascension
03h 15m 29s
True Declination
0° 00' 00"
Sunlit
Object was in daylight at TLE epoch
Visualization TLE readout
Latitude
73.22947°
Longitude
-177.16659°
Altitude
764.014 km
Speed
7.487 km/s
Apparent Right ascension
13h 50m 41s
Apparent Declination
31° 55' 03"
Sunlit
Object is in daylight
Visualization observer readout
Local Sidereal Time
03:30:28
Azimuth
21.707° NNE
Elevation
-14.539°
Doppler factor
1
Orbital elements
Apogee altitude
793.113 km
Perigee altitude
737.91 km
Semi-major axis
7,143.649 km
Eccentricity
0.0038638
Inclination
74.0304°
RAAN
48.8746°
Arg. of periapsis
142.4857°
True anomaly
217.62945°
Mean anomaly
217.9004°
Eccentric anomaly
217.76482°
Mean motion
3.5947 °/min
BSTAR
0.00080595
Orbital period
100.15 mins
Loading maneuver chart data...
Loading SW <> Apogee altitude chart data...

COSMOS 2251 DEB Visibility forecast

Observer location: undefined°, undefined°

Span
Click to sort rows by Start time (UTC) header in descending order
Start Az.
Max El. time (UTC)
Max El. Az.
Max El.
End time (UTC)
End Az.
7 mins2025-05-07 20:53:23.551Z247.012° WSW2025-05-07 20:57:23.551Z304.419° NW23.558°2025-05-07 21:00:23.551Z347.114° N
8 mins2025-05-08 05:39:23.551Z350.361° N2025-05-08 05:43:23.551Z72.886° E41.626°2025-05-08 05:47:23.551Z148.057° SSE
6 mins2025-05-08 18:35:23.551Z135.13° SSE2025-05-08 18:38:23.551Z92.03° ESE20.154°2025-05-08 18:41:23.551Z53.514° ENE
|